IRIDIUM 55

Last updated on Wed Nov 29 2017 00:19:02 GMT+0000 (Coordinated Universal Time)

1 25272U 98019A 17332.15906113 .00000166 00000-0 47744-4 0 9990 2 25272 86.4250 218.4507 0001726 94.5443 265.5953 14.38610873 29600
UTC large
Height (km)
Speed (km/s)
/
Latitude / Longitude
Inclination (degrees)
Orbital Period (minutes)
Azimuth
Elevation
Range (km)
Doppler Factor

Next 0 passes for location: London (51.5072 / 0.1276)

Sorry there are no passes over London.